Weather History for Jacksonville, IL

Change the Weather History Date:

Tuesday, September 10, 2013

  Actual Average (KSPI) Record (KSPI)
Temperature  
Mean Temperature 82 °F 69 °F  
Max Temperature 92 °F 81 °F 98 °F (1983)
Min Temperature 72 °F 57 °F 41 °F (1976)
Degree Days  
Heating Degree Days 0 1  
Month to date heating degree days 7  
Since 1 July heating degree days 12  
Cooling Degree Days 17 5  
Month to date cooling degree days 63  
Year to date cooling degree days 1033  
Growing Degree Days 32 (Base 50)    
Moisture  
Dew Point 67 °F    
Average Humidity 64    
Maximum Humidity 80    
Minimum Humidity 37    
Precipitation  
Precipitation 0.00 in 0.10 in 1.52 in (1905)
Month to date precipitation 0.98  
Year to date precipitation 26.63  
Snow  
Snow 0.00 in 0.00 in 0.00 in ()
Month to date snowfall 0.0  
Since 1 July snowfall 0.0  
Since 1 September snowfall 0.0  
Snow Depth -    
Sea Level Pressure  
Sea Level Pressure 30.05 in    
Wind  
Wind Speed 1 mph (SW)    
Max Wind Speed 14 mph    
Max Gust Speed 21 mph    
Visibility 10 miles    
Events      
T = Trace of Precipitation, MM = Missing Value Source: NWS Daily Summary

Daily Weather History Graph

Daily Weather History Graph

Search for Another Location

Airport:

Trip Planner

Search our weather history database for the weather conditions in past years. The results will help you decide how hot, cold, wet, or windy it might be!

Date:

Astronomy

Sep. 10, 2013 Rise Set
Actual Time 6:37 AM CDT 7:17 PM CDT
Civil Twilight 6:10 AM CDT 7:44 PM CDT
Nautical Twilight 5:38 AM CDT 8:16 PM CDT
Astronomical Twilight 5:04 AM CDT 8:49 PM CDT
Moon 12:02 PM CDT (9/10) 10:21 PM CDT (9/10)
Length of Visible Light 13h 34m
Length of Day
12h 39m
Waxing Crescent, 28% of the Moon is Illuminated
Sep 10
Waxing Crescent
Sep 12
First Quarter
Sep 19
Full
Sep 26
Last Quarter
Oct 4
New

Hourly Weather History & Observations

Time (CDT) Temp. Heat Index Dew Point Humidity Pressure Visibility Wind Dir Wind Speed Gust Speed Precip Events Conditions
12:15 AM 76.1 °F - 65.8 °F 70% 29.97 in 10.0 mi Calm Calm - N/A   Clear
12:35 AM 75.4 °F - 66.0 °F 73% 29.98 in 10.0 mi Calm Calm - N/A   Clear
12:55 AM 75.2 °F - 65.7 °F 72% 29.98 in 10.0 mi Calm Calm - N/A   Clear
1:15 AM 74.7 °F - 65.7 °F 73% 29.99 in 10.0 mi Calm Calm - N/A   Clear
1:35 AM 74.5 °F - 65.5 °F 73% 29.99 in 10.0 mi Calm Calm - N/A   Clear
1:55 AM 74.3 °F - 65.3 °F 73% 29.99 in 10.0 mi Calm Calm - N/A   Clear
2:15 AM 73.4 °F - 65.1 °F 75% 29.99 in 10.0 mi Calm Calm - N/A   Clear
2:35 AM 73.6 °F - 64.9 °F 74% 30.00 in 10.0 mi Calm Calm - N/A   Clear
2:55 AM 73.8 °F - 65.3 °F 75% 30.00 in 10.0 mi Calm Calm - N/A   Clear
3:15 AM 73.4 °F - 65.5 °F 76% 30.00 in 10.0 mi Calm Calm - N/A   Clear
3:35 AM 73.4 °F - 65.3 °F 76% 30.00 in 10.0 mi Calm Calm - N/A   Clear
3:55 AM 72.9 °F - 65.3 °F 77% 30.00 in 10.0 mi Calm Calm - N/A   Clear
4:15 AM 72.9 °F - 65.5 °F 78% 30.01 in 10.0 mi Calm Calm - N/A   Clear
4:35 AM 72.7 °F - 65.5 °F 78% 30.01 in 10.0 mi Calm Calm - N/A   Clear
4:55 AM 72.5 °F - 65.5 °F 79% 30.02 in 10.0 mi Calm Calm - N/A   Clear
5:15 AM 72.9 °F - 65.7 °F 78% 30.02 in 10.0 mi Calm Calm - N/A   Clear
5:35 AM 73.0 °F - 65.7 °F 78% 30.03 in 10.0 mi Calm Calm - N/A   Clear
5:55 AM 72.7 °F - 65.7 °F 79% 30.03 in 10.0 mi Calm Calm - N/A   Clear
6:15 AM 72.5 °F - 65.7 °F 79% 30.04 in 10.0 mi Calm Calm - N/A   Clear
6:35 AM 72.5 °F - 65.7 °F 79% 30.05 in 10.0 mi Calm Calm - N/A   Clear
6:55 AM 72.1 °F - 65.7 °F 80% 30.05 in 10.0 mi Calm Calm - N/A   Clear
7:15 AM 72.7 °F - 66.2 °F 80% 30.06 in 10.0 mi Calm Calm - N/A   Clear
7:35 AM 74.5 °F - 66.4 °F 76% 30.06 in 10.0 mi Calm Calm - N/A   Clear
7:55 AM 75.7 °F - 67.1 °F 74% 30.07 in 10.0 mi Calm Calm - N/A   Clear
8:15 AM 77.0 °F - 67.3 °F 72% 30.07 in 10.0 mi Calm Calm - N/A   Clear
8:35 AM 77.9 °F - 68.2 °F 72% 30.07 in 10.0 mi Calm Calm - N/A   Clear
8:55 AM 79.3 °F - 68.7 °F 70% 30.08 in 10.0 mi Calm Calm - N/A   Clear
9:15 AM 81.1 °F 84.4 °F 69.1 °F 67% 30.08 in 10.0 mi Calm Calm - N/A   Clear
9:35 AM 82.0 °F 85.5 °F 69.1 °F 65% 30.08 in 10.0 mi Calm Calm - N/A   Clear
9:55 AM 83.7 °F 87.7 °F 69.8 °F 63% 30.08 in 10.0 mi Calm Calm - N/A   Clear
10:15 AM 84.4 °F 88.5 °F 69.8 °F 61% 30.09 in 10.0 mi SW 6.9 mph - N/A   Clear
10:35 AM 85.5 °F 89.8 °F 69.8 °F 59% 30.08 in 10.0 mi Calm Calm - N/A   Clear
10:55 AM 86.9 °F 92.1 °F 70.3 °F 58% 30.08 in 10.0 mi Calm Calm - N/A   Clear
11:15 AM 87.6 °F 92.7 °F 70.0 °F 56% 30.08 in 10.0 mi SW 6.9 mph - N/A   Clear
11:35 AM 88.7 °F 93.9 °F 70.2 °F 54% 30.08 in 10.0 mi SW 3.5 mph - N/A   Clear
11:55 AM 89.2 °F 94.5 °F 70.2 °F 53% 30.08 in 10.0 mi SSW 9.2 mph - N/A   Clear
12:15 PM 89.8 °F 96.0 °F 70.9 °F 54% 30.08 in 10.0 mi SSW 9.2 mph - N/A   Clear
12:35 PM 90.3 °F 95.2 °F 69.4 °F 50% 30.08 in 10.0 mi SW 11.5 mph - N/A   Clear
12:55 PM 90.9 °F 96.2 °F 69.6 °F 50% 30.08 in 10.0 mi SSW 10.4 mph - N/A   Clear
1:15 PM 91.4 °F 96.8 °F 70.0 °F 49% 30.07 in 10.0 mi Calm Calm - N/A   Clear
1:35 PM 92.1 °F 96.7 °F 68.7 °F 46% 30.07 in 10.0 mi SW 6.9 mph - N/A   Clear
1:55 PM 92.3 °F 95.6 °F 67.1 °F 43% 30.07 in 10.0 mi SSW 9.2 mph - N/A   Clear
2:15 PM 92.8 °F 96.6 °F 67.1 °F 43% 30.06 in 10.0 mi SSW 12.7 mph 16.1 mph N/A   Clear
2:35 PM 92.7 °F 95.8 °F 66.4 °F 42% 30.06 in 10.0 mi SSW 9.2 mph - N/A   Clear
2:55 PM 92.7 °F 93.6 °F 63.1 °F 37% 30.05 in 10.0 mi SW 11.5 mph 20.7 mph N/A   Clear
3:15 PM 92.5 °F 94.6 °F 64.6 °F 40% 30.05 in 10.0 mi SW 13.8 mph 17.3 mph N/A   Clear
3:35 PM 92.3 °F 94.7 °F 65.1 °F 41% 30.05 in 10.0 mi SW 6.9 mph 16.1 mph N/A   Clear
3:55 PM 92.3 °F 94.3 °F 64.9 °F 40% 30.04 in 10.0 mi SW 10.4 mph - N/A   Clear
4:15 PM 92.3 °F 95.6 °F 66.6 °F 43% 30.03 in 10.0 mi SW 10.4 mph - N/A   Clear
4:35 PM 91.9 °F 94.5 °F 65.8 °F 42% 30.03 in 10.0 mi Calm Calm - N/A   Clear
4:55 PM 92.3 °F 95.6 °F 67.1 °F 43% 30.03 in 10.0 mi Calm Calm - N/A   Clear
5:15 PM 91.6 °F 95.2 °F 67.3 °F 45% 30.03 in 10.0 mi Calm Calm - N/A   Clear
5:35 PM 90.3 °F 94.3 °F 68.2 °F 48% 30.02 in 10.0 mi Calm Calm - N/A   Clear
5:55 PM 88.9 °F 93.8 °F 69.6 °F 53% 30.03 in 10.0 mi Calm Calm - N/A   Clear
6:15 PM 88.2 °F 92.1 °F 68.5 °F 52% 30.03 in 10.0 mi Calm Calm - N/A   Clear
6:35 PM 87.4 °F 91.9 °F 69.4 °F 55% 30.04 in 10.0 mi Calm Calm - N/A   Clear
6:55 PM 86.0 °F 90.1 °F 69.1 °F 57% 30.04 in 10.0 mi Calm Calm - N/A   Clear
7:15 PM 84.0 °F 87.8 °F 69.4 °F 61% 30.05 in 10.0 mi Calm Calm - N/A   Clear
7:35 PM 80.4 °F 83.4 °F 69.1 °F 68% 30.05 in 10.0 mi Calm Calm - N/A   Clear
7:55 PM 80.1 °F 83.3 °F 70.2 °F 72% 30.06 in 10.0 mi Calm Calm - N/A   Clear
8:15 PM 80.4 °F 83.4 °F 68.9 °F 68% 30.07 in 10.0 mi Calm Calm - N/A   Clear
8:35 PM 79.5 °F - 68.9 °F 70% 30.07 in 10.0 mi Calm Calm - N/A   Clear
8:55 PM 80.2 °F 83.0 °F 68.4 °F 67% 30.08 in 10.0 mi Calm Calm - N/A   Clear
9:15 PM 80.1 °F 82.7 °F 68.2 °F 67% 30.08 in 10.0 mi Calm Calm - N/A   Clear
9:35 PM 79.7 °F - 68.0 °F 67% 30.08 in 10.0 mi Calm Calm - N/A   Clear
9:55 PM 79.0 °F - 68.2 °F 69% 30.08 in 10.0 mi Calm Calm - N/A   Clear
10:15 PM 77.9 °F - 67.5 °F 70% 30.08 in 10.0 mi Calm Calm - N/A   Clear
10:35 PM 77.7 °F - 67.8 °F 71% 30.08 in 10.0 mi Calm Calm - N/A   Clear
10:55 PM 76.8 °F - 67.8 °F 74% 30.08 in 10.0 mi Calm Calm - N/A   Clear
11:15 PM 76.3 °F - 66.6 °F 72% 30.08 in 10.0 mi Calm Calm - N/A   Clear
11:35 PM 76.8 °F - 66.2 °F 70% 30.08 in 10.0 mi Calm Calm - N/A   Clear
11:55 PM 75.7 °F - 65.3 °F 70% 30.08 in 10.0 mi Calm Calm - N/A   Clear